Vertical_Velocity
-0 -1 -3 -5 -2 -1 1 3 1 -7 -7 -2 -2 -0 -2 1 4 3 1 -3 -2 -6 -0 8 -1 1 -0 0 4 4 -3 -5 -3 -3 -3 -4 -10 -5 -4 -1 -2 -1 2 2
4 -4 -6 -0 1 2 1 2 -9 -9 -1 -2 -1 -2 -0 0 -4 -7 -7 -1 -1 -2 -1 2 1 -0 1 1 -0 -1 3 3 4 1 -1 5 2 0 0 -5 5 11 5 6
-2 -10 1 2 1 5 -2 2 -3 -0 -2 -2 -1 -5 -1 4 1 5 5 5 6 -6 -5 -5 -6 -3 0 -3 -2 -1 3 -5 -2 -2 2 2 1 4 -1 -6 -10 -5 -6 -6
-3 -9 2 2 -0 2 3 -2 1 1 -2 -4 -3 -7 -2 0 2 2 2 -1 -3 -4 1 3 -2 -6 -8 -8 -4 -2 -3 -5 -3 -5 -1 -4 -4 -4 -6 -6 -5 -7 1 -6
-20 1 2 6 -15 1 -18 4 -0 0 0 -1 -3 -3 -12 0 2 1 1 -2 -3 -3 -5 -9 -8 -3 -3 -3 -6 -2 -1 -4 1 -4 -1 -1 -4 -2 2 -2 -3 -7 -3 -1
-10 -1 -1 -13 -4 0 -4 4 -2 -1 -1 -3 -4 -4 -9 -2 -7 2 2 1 -2 -4 -5 0 6 3 -2 4 -2 -3 -4 -6 -3 0 3 3 -6 -2 0 -2 -2 2 -2 -0
3 -6 -2 3 6 1 4 -3 -3 -6 -5 -8 -1 2 -15 -3 -2 -7 -6 -2 -4 3 -0 -2 -5 -6 -0 -7 -5 -5 -3 -4 0 -1 -1 -2 -6 2 0 -1 -1 -1 -4 -2
-2 -3 1 -9 -7 -8 -3 -8 -8 -4 -2 -4 -1 -3 -16 -4 -2 -1 -1 -6 5 2 4 -6 -6 -4 -1 -1 -2 -1 -5 -5 -6 -5 -4 -4 -1 -2 0 2 0 -7 -2 -6
1 -4 -1 3 -1 -0 -8 -2 -12 -5 -1 -1 -3 -8 -8 -0 1 1 1 3 -2 -0 -4 -9 2 -5 -2 -5 -6 -5 -1 -2 -2 -4 -4 -4 1 -1 -2 -4 0 -1 3 1
-6 -2 -4 -3 12 1 -12 -7 -11 -3 -1 -0 -3 -1 -6 -2 -1 0 2 -1 1 5 10 5 -4 -2 -6 0 6 3 -1 -5 4 2 -0 0 -6 -3 1 -2 3 7 11 14
0 -3 -11 6 -2 -5 -0 3 -0 -8 -5 -6 -1 -9 -5 -3 -2 -2 -1 -1 -4 -3 -5 -8 -4 -2 -4 7 4 -1 8 3 3 5 -4 3 -3 1 16 6 5 0 14 15
-10 -3 -1 -12 -5 -1 -2 -5 -4 -5 -2 -1 -4 -15 -1 -2 -1 -1 -1 -2 -0 -5 -5 -3 -6 -1 -0 -5 10 -8 4 -2 4 -0 20 3 3 8 6 9 1 14 -1 -31
-5 -2 2 6 1 3 0 -2 -2 -2 -2 -3 -5 -11 -1 1 0 -2 -0 -3 -1 0 5 6 2 -4 -5 -2 6 4 -4 -4 -1 1 4 9 11 1 -3 11 -4 13 -9 -6
12 0 -9 -15 -11 -3 -2 0 0 -2 2 -4 -5 -3 -4 -2 -1 -2 0 2 -1 -4 -3 -1 11 -0 0 -2 -3 1 -11 2 -3 2 1 6 3 4 2 6 7 11 2 -5
5 -2 -0 -2 -1 1 2 2 -1 1 -4 -2 -9 -2 -5 -3 -2 -5 -4 2 2 -1 -2 -4 13 -1 1 -4 -6 1 -0 -4 1 3 1 -3 3 3 7 7 7 4 -2 3
-4 -2 -1 -1 0 1 0 -2 0 -0 1 2 1 -2 -4 -4 2 1 -2 -0 -0 2 2 -1 3 -1 -5 -4 -2 -2 -0 1 1 -1 1 2 -1 1 2 6 1 -1 -0 3
4 3 -1 -3 0 3 -0 -9 -2 -1 -0 -6 -1 -11 -1 -0 -0 -3 -3 -2 -3 -3 -0 -6 -6 -3 -0 -2 1 -0 3 5 1 3 0 3 1 5 3 -3 -1 2 3 3
1 3 -0 -1 1 2 -23 -2 -2 -1 -3 0 1 -0 -2 -4 -5 2 2 -4 -3 1 -2 -2 0 -2 -0 2 1 4 3 1 2 -0 -2 -0 -1 -4 -2 0 1 3 2 2
-1 2 0 -5 -1 -5 -3 -7 -0 -6 -12 -2 -2 -0 -0 -1 4 -0 -2 4 -4 -7 -3 -2 2 4 3 1 0 -0 -1 -1 -2 -2 -2 1 4 5 2 3 1 2 4 3
1 2 2 0 -1 -3 -7 -8 -2 -1 -5 -1 -2 -1 -1 0 -2 -6 -4 -1 1 -0 0 -5 -0 3 5 3 4 3 3 2 3 3 3 3 4 4 3 2 1 2 3 1
-2 -2 -2 0 -1 -7 -4 -1 6 10 -26 -1 1 -0 -0 -3 -10 -3 -1 -1 5 1 -1 1 3 1 1 3 1 1 2 2 0 2 1 2 1 0 1 2 2 -0 -2 1
-4 3 -0 0 -0 -7 0 -9 -3 -12 -1 0 -0 1 -2 -2 -2 -1 1 -2 2 -0 -0 3 2 3 2 0 0 2 3 2 2 3 2 2 4 2 3 4 1 2 3 2
2 -12 -1 -8 -11 -3 -1 -1 5 6 2 5 -3 -0 -1 2 1 1 -1 3 3 -0 -2 1 -0 -3 -3 -3 -2 -2 -2 -3 -1 0 -0 2 2 5 5 2 1 -1 2 2
-2 -0 0 -5 -6 -4 1 3 -3 7 5 -3 10 -3 -7 0 3 4 3 2 0 2 1 2 1 1 -0 2 1 1 -2 -1 -1 -0 1 -0 0 -1 1 3 2 3 5 6
-7 -2 -2 -3 -3 0 -5 -3 -4 -2 1 2 4 -2 -2 -6 -5 -2 -1 2 2 3 3 4 2 1 2 5 6 7 5 3 -2 -1 2 3 3 6 3 5 4 4 1 2
-3 -5 -4 -8 -6 -5 -7 -7 3 -9 3 2 -3 -2 1 1 3 4 4 3 3 1 0 1 3 4 2 4 3 4 4 7 3 -2 -2 -1 -1 1 0 -2 -3 -1 1 0
Height
1479 1487 1485 1484 1486 1482 1486 1489 1488 1473 1464 1464 1467 1469 1466 1471 1474 1473 1469 1473 1476 1478 1479 1481 1482 1484 1486 1488 1490 1492 1493 1496 1499 1505 1509 1515 1520 1523 1526 1531 1534 1540 1542 1543
1482 1478 1473 1476 1481 1484 1484 1487 1482 1468 1457 1462 1459 1462 1459 1466 1465 1464 1467 1472 1473 1476 1478 1479 1481 1482 1484 1486 1489 1492 1493 1496 1499 1505 1511 1517 1519 1523 1527 1531 1533 1537 1539 1541
1474 1467 1464 1473 1476 1482 1480 1484 1477 1471 1460 1457 1459 1465 1457 1462 1464 1464 1464 1466 1469 1471 1474 1476 1479 1481 1483 1484 1486 1489 1492 1497 1502 1509 1514 1518 1522 1524 1526 1528 1531 1534 1536 1539
1470 1464 1467 1470 1471 1475 1484 1466 1465 1462 1468 1482 1461 1488 1464 1454 1457 1460 1461 1464 1466 1469 1474 1475 1476 1478 1480 1484 1488 1492 1495 1499 1503 1507 1510 1514 1515 1517 1520 1524 1529 1530 1532 1535
1458 1458 1461 1466 1463 1464 1471 1461 1460 1458 1464 1469 1470 1480 1463 1454 1459 1456 1458 1460 1462 1464 1467 1470 1472 1475 1479 1483 1487 1491 1495 1499 1503 1505 1508 1510 1513 1516 1518 1521 1523 1525 1528 1530
1451 1450 1454 1454 1455 1456 1456 1457 1461 1464 1471 1487 1468 1473 1466 1458 1444 1449 1451 1453 1457 1461 1464 1467 1469 1474 1478 1482 1486 1489 1492 1495 1499 1502 1505 1507 1509 1512 1514 1517 1519 1520 1521 1523
1451 1446 1448 1450 1456 1452 1455 1465 1490 1494 1497 1493 1461 1469 1453 1436 1434 1436 1442 1447 1450 1453 1459 1462 1465 1468 1473 1476 1480 1484 1487 1491 1495 1498 1501 1503 1505 1508 1510 1512 1513 1515 1515 1516
1455 1460 1443 1436 1445 1450 1453 1460 1488 1493 1498 1485 1461 1466 1449 1428 1424 1429 1433 1435 1443 1450 1453 1455 1457 1462 1467 1470 1474 1478 1481 1485 1488 1490 1492 1495 1498 1500 1502 1505 1506 1507 1510 1511
1450 1443 1426 1427 1434 1436 1447 1458 1450 1471 1472 1486 1470 1452 1433 1425 1424 1426 1428 1435 1440 1445 1448 1449 1453 1457 1461 1465 1467 1468 1472 1476 1479 1482 1486 1488 1492 1494 1496 1499 1500 1502 1503 1506
1434 1443 1424 1422 1426 1428 1431 1435 1463 1466 1485 1483 1467 1460 1453 1435 1430 1428 1428 1430 1434 1437 1442 1448 1451 1453 1455 1458 1461 1466 1468 1469 1472 1478 1481 1482 1484 1487 1491 1493 1494 1497 1500 1505
1432 1436 1435 1423 1425 1432 1435 1437 1441 1448 1462 1480 1478 1463 1435 1430 1427 1427 1427 1424 1427 1431 1435 1440 1442 1445 1447 1449 1454 1457 1461 1465 1468 1472 1473 1476 1478 1480 1485 1486 1490 1494 1496 1498
1419 1431 1441 1428 1417 1417 1417 1421 1429 1458 1458 1459 1468 1451 1423 1422 1422 1423 1421 1422 1424 1427 1429 1432 1435 1438 1440 1443 1446 1449 1454 1459 1464 1465 1466 1466 1471 1476 1480 1482 1482 1485 1486 1484
1415 1422 1439 1429 1421 1411 1417 1418 1418 1428 1441 1451 1471 1455 1419 1419 1420 1420 1419 1421 1423 1425 1427 1429 1432 1434 1435 1437 1439 1444 1447 1451 1458 1460 1461 1463 1466 1469 1470 1474 1473 1476 1479 1481
1412 1411 1410 1418 1413 1413 1419 1413 1412 1419 1442 1441 1446 1437 1425 1418 1419 1416 1418 1416 1419 1422 1424 1427 1429 1430 1432 1433 1435 1437 1440 1445 1449 1453 1455 1458 1461 1462 1463 1466 1467 1468 1470 1473
1408 1409 1405 1403 1407 1410 1414 1416 1408 1413 1420 1429 1428 1430 1422 1417 1414 1412 1411 1416 1417 1417 1421 1424 1426 1428 1428 1430 1432 1434 1436 1439 1442 1446 1449 1452 1454 1455 1457 1458 1459 1461 1466 1469
1410 1408 1406 1414 1409 1411 1423 1414 1407 1407 1408 1414 1415 1419 1407 1404 1405 1408 1407 1408 1411 1414 1417 1419 1421 1422 1424 1426 1427 1429 1431 1432 1436 1440 1443 1446 1446 1448 1450 1453 1455 1458 1462 1464
1429 1414 1412 1418 1409 1413 1432 1414 1404 1402 1401 1404 1416 1409 1399 1400 1400 1401 1402 1404 1405 1408 1411 1415 1417 1417 1418 1421 1423 1424 1427 1430 1433 1436 1439 1441 1443 1445 1447 1450 1454 1457 1460 1462
1431 1429 1415 1421 1417 1431 1406 1395 1390 1393 1394 1394 1394 1395 1394 1394 1393 1394 1395 1396 1399 1404 1407 1410 1413 1415 1416 1418 1421 1423 1425 1428 1430 1433 1436 1438 1441 1444 1447 1449 1452 1454 1456 1458
1421 1426 1420 1416 1417 1409 1400 1390 1388 1391 1398 1386 1387 1390 1389 1390 1390 1390 1392 1393 1395 1400 1406 1409 1412 1413 1415 1418 1421 1424 1426 1428 1431 1434 1436 1439 1441 1442 1444 1446 1448 1450 1452 1455
1408 1415 1416 1417 1412 1418 1388 1387 1384 1383 1406 1383 1380 1384 1385 1387 1402 1393 1389 1393 1396 1400 1404 1406 1409 1411 1414 1417 1420 1423 1424 1426 1427 1430 1433 1435 1437 1440 1442 1444 1447 1449 1452 1454
1421 1416 1412 1420 1415 1407 1385 1381 1378 1397 1404 1378 1378 1378 1382 1386 1386 1384 1388 1391 1395 1397 1401 1404 1407 1410 1414 1417 1419 1422 1423 1424 1426 1428 1430 1432 1435 1438 1441 1444 1446 1448 1450 1453
1414 1411 1410 1415 1415 1411 1385 1378 1383 1382 1377 1377 1376 1377 1380 1379 1379 1380 1384 1388 1391 1394 1399 1403 1406 1409 1413 1415 1418 1420 1422 1423 1426 1429 1431 1433 1435 1438 1441 1443 1445 1448 1450 1452
1404 1402 1401 1401 1401 1388 1386 1383 1383 1380 1377 1376 1374 1375 1376 1376 1377 1378 1382 1386 1390 1394 1397 1401 1405 1408 1411 1414 1417 1419 1421 1425 1428 1430 1431 1434 1436 1439 1442 1444 1446 1449 1452 1453
1388 1388 1394 1394 1386 1383 1380 1379 1380 1379 1380 1379 1374 1376 1377 1378 1379 1381 1384 1387 1391 1395 1398 1401 1403 1407 1410 1413 1416 1420 1422 1425 1428 1431 1433 1435 1438 1441 1444 1446 1449 1451 1453 1455
1384 1386 1388 1389 1383 1381 1376 1375 1374 1376 1380 1380 1376 1375 1376 1378 1382 1385 1387 1390 1393 1396 1399 1402 1403 1405 1409 1413 1417 1420 1423 1425 1428 1432 1435 1438 1440 1443 1445 1447 1449 1451 1453 1454
1379 1382 1389 1388 1372 1374 1372 1370 1370 1372 1374 1373 1374 1373 1375 1379 1379 1380 1385 1390 1393 1395 1398 1400 1403 1406 1409 1413 1416 1420 1424 1427 1429 1432 1437 1440 1442 1444 1445 1447 1449 1451 1451 1452